Tracking 29494 objects as of 8-Sep-2024
HD Live streaming from Space Station
objects crossing your sky now

FENGYUN 1C DEB

Track FENGYUN 1C DEB now!
10-day predictions


NORAD ID: 36180
Int'l Code: 1999-025DTD
Perigee: 683.2 km
Apogee: 996.6 km
Inclination: 98.5 °
Period: 101.6 minutes
Semi major axis: 7210 km
RCS: 0.0053 m2 (small)
Launch date: May 10, 1999
Source: People's Republic of China (PRC)
Launch site: Taiyaun Space Center, China (TSC)

Note: This is SATELLITE DEBRIS
Your satellite tracking list
Your tracking list is empty




NASA's NSSDC Master Catalog

Two Line Element Set (TLE):
1 36180U 99025DTD 24235.97338925  .00001852  00000-0  73666-3 0  9992
2 36180  98.5036 313.3177 0217304 334.0717  24.9697 14.17821933638191
Source of the keplerian elements: AFSPC